Flag for U.S.A. Weather past 2 weeks in Kennebunk, Maine, U.S.A.

Now
66 °F

Sunny.


Feels Like: 66 °F
Forecast: 61 / 78 °F
Wind: 3 mph from West

Location: Sanford Municipal

Current Time: Sep 1, 2015 at 8:27:38 AM

Latest Report: Sep 1, 2015 at 7:55 AM


Visibility: 9 mi

Pressure: 30.05 "Hg

Humidity: 83%

Dew point: 61 °F

Location of KennebunkLocation

Historic Weather in Kennebunk — Graph

°F

Kennebunk temperature yesterday

Maximum temperature yesterday: 84 °F (at 12:55 PM)
Minimum temperature yesterday: 55 °F (at 4:55 AM)
Average temperature yesterday: 71 °F

Past Weeks' High & Low Weather Summary

 TemperatureHumidityPressure
High91 °F (Aug 17, 1:55 PM)94% (Aug 20, 7:15 AM)30.19 "Hg (Aug 20, 7:15 AM)
Low48 °F (Aug 28, 5:35 AM)34% (Aug 17, 3:15 PM)29.85 "Hg (Aug 31, 4:15 PM)
Average71 °F71%30.02 "Hg
* Reported Aug 17 7:15 AM — Sep 1 7:15 AM, Kennebunk, Weather by CustomWeather, © 2015

Note: Actual official high and low records may vary slightly from our data, if they occured in-between our weather recording intervals... More about our weather records

Advertising

Kennebunk weather history for previous 24 hours

 ConditionsComfort  
Time TempWeatherWind HumidityBarometerVisibility
7:15 AM
Tue, Sep 1
57 °FSunny.No wind82%30.04 "Hg5 mi
6:55 AM55 °FClear.No wind82%30.03 "Hg3 mi
6:35 AM54 °FClear.No wind82%30.03 "Hg3 mi
6:15 AM54 °FDense fog.No wind82%30.02 "Hg1 mi
5:55 AM54 °FClear.No wind82%30.02 "Hg5 mi
5:35 AM54 °FClear.No wind82%30.01 "Hg5 mi
5:15 AM54 °FClear.No wind88%30.01 "Hg4 mi
4:55 AM55 °FClear.No wind82%30.00 "Hg7 mi
4:35 AM55 °FClear.No wind82%30.00 "Hg4 mi
4:15 AM55 °FClear.No wind82%29.99 "Hg3 mi
3:55 AM55 °FClear.No wind88%29.98 "Hg5 mi
3:35 AM55 °FClear.No wind88%29.97 "Hg5 mi
3:15 AM55 °FClear.No wind82%29.97 "Hg5 mi
2:55 AM55 °FClear.No wind88%29.97 "Hg5 mi
2:35 AM57 °FClear.3 mph82%29.97 "Hg7 mi
2:15 AM57 °FClear.3 mph88%29.96 "Hg5 mi
1:55 AM59 °FClear.3 mph82%29.97 "Hg8 mi
1:35 AM57 °FClear.No wind88%29.97 "Hg7 mi
1:15 AM59 °FClear.3 mph82%29.96 "Hg7 mi
12:55 AM59 °FClear.6 mph88%29.96 "Hg5 mi
11:35 PM
Mon, Aug 31
63 °FClear.No wind77%29.95 "Hg10 mi
10:55 PM70 °FClear.3 mph64%29.93 "Hg10 mi
10:35 PM72 °FClear.5 mph61%29.93 "Hg10 mi
10:15 PM70 °FClear.No wind64%29.93 "Hg10 mi
9:55 PM70 °FClear.5 mph64%29.92 "Hg10 mi
9:35 PM72 °FClear.5 mph65%29.92 "Hg10 mi
9:15 PM68 °FClear.5 mph73%29.92 "Hg10 mi
8:55 PM70 °FClear.No wind69%29.91 "Hg10 mi
8:35 PM70 °FClear.5 mph73%29.90 "Hg10 mi
8:15 PM75 °FSunny.3 mph61%29.90 "Hg10 mi
7:55 PM75 °FSunny.5 mph61%29.89 "Hg10 mi
7:35 PM75 °FSunny.6 mph61%29.89 "Hg10 mi
7:15 PM79 °FSunny.7 mph54%29.88 "Hg10 mi
6:55 PM79 °FScattered clouds.5 mph58%29.87 "Hg10 mi
5:35 PM82 °FSunny.7 mph48%29.86 "Hg10 mi
5:15 PM84 °FSunny.7 mph45%29.85 "Hg10 mi
4:55 PM84 °FSunny.8 mph45%29.86 "Hg10 mi
4:35 PM84 °FPassing clouds.9 mph45%29.86 "Hg10 mi
4:15 PM84 °FPartly sunny.14 mph45%29.85 "Hg10 mi
3:55 PM84 °FPartly sunny.9 mph45%29.86 "Hg10 mi
3:35 PM84 °FScattered clouds.15 mph48%29.86 "Hg10 mi
3:15 PM84 °FMore clouds than sun.12 mph48%29.86 "Hg10 mi
2:55 PM84 °FPartly sunny.13 mph48%29.87 "Hg10 mi
2:35 PM84 °FBroken clouds.12 mph45%29.87 "Hg10 mi
2:15 PM84 °FPassing clouds.12 mph48%29.88 "Hg10 mi
1:55 PM84 °FScattered clouds.12 mph45%29.88 "Hg10 mi
1:35 PM84 °FPartly sunny.14 mph45%29.88 "Hg10 mi
1:15 PM84 °FPassing clouds.16 mph45%29.89 "Hg10 mi
12:55 PM84 °FPassing clouds.15 mph45%29.89 "Hg10 mi
12:35 PM82 °FSunny.12 mph48%29.90 "Hg10 mi
12:15 PM82 °FSunny.12 mph48%29.92 "Hg10 mi
11:55 AM82 °FSunny.10 mph48%29.92 "Hg10 mi
11:35 AM82 °FSunny.12 mph48%29.93 "Hg10 mi
11:15 AM81 °FSunny.13 mph51%29.93 "Hg10 mi
10:55 AM81 °FSunny.12 mph48%29.94 "Hg10 mi
10:35 AM81 °FSunny.10 mph51%29.95 "Hg10 mi
10:15 AM79 °FSunny.9 mph54%29.95 "Hg10 mi
9:55 AM77 °FSunny.8 mph57%29.95 "Hg10 mi
9:35 AM75 °FSunny.9 mph61%29.95 "Hg10 mi
9:15 AM73 °FSunny.8 mph65%29.95 "Hg10 mi
8:55 AM73 °FSunny.10 mph65%29.95 "Hg10 mi
8:35 AM73 °FSunny.8 mph65%29.95 "Hg8 mi
8:15 AM72 °FSunny.8 mph69%29.96 "Hg10 mi
Weather by CustomWeather, © 2015

See weather overviewHow to use our weather pages